STARLINK-31884, 59676

Orbit data source: Space-Track

STARLINK-31884, 59676 is a payload satellite owned by SpaceX/Seattle (US) in LEO that was launched on Mon, 06 May 2024 UTC via an FALCON 9 launch vehicle from the Air Force Eastern Test Range (AFETR). Payload-class satellites include a variety of spacecraft equipped with specific instruments for various scientific and technological missions. These include communications satellites like Starlink; space stations such as the ISS; scientific satellites like the Hubble; Earth observation satellites from companies like Planet Labs, Umbra, and HawkEye 360; GPS; miniature CubeSats for education and research; and military/defense satellites.

Loading next visibility...
Identifier
59676, 2024-084Y
Orbit
LEO
Country
Flag of USUS
Related business
Manufacturer
SpaceX/Seattle
Mission
Operational Commercial Communications
Bus & Motor
STARLINK V2M, Unknown motor
Mass
730 kg wet, ~700 kg dry
Launch date (UTC)
2024-05-06 (2 years ago)
Launch vehicle
FALCON 9
Launch site
Air Force Eastern Test Range (AFETR)
Object type
Payload
Rocket body
Debris
Shape & HBR
Box + 2 Pan, 17.7 m
Radar Cross Section
33.884 m², Large (>1 m²)

Expand to show TLE details & history
Last TLE update: 3 days ago

TLE from 3 days ago
0 STARLINK-31884
1 59676U 24084Y   26170.49701667  .00000081  00000-0  12454-4 0  9996
2 59676  43.0016 186.8286 0001223 285.9876  74.0841 15.27574598119942
Epoch: 2026-06-19T11:55Z
TLE epoch observation values (Epoch: 2026-06-19T11:55:42.240Z)
Latitude
-0°
Longitude
100.17745°
Altitude
482.611 km
Speed
7.626 km/s
True Right ascension
12h 27m 18s
True Declination
0° 00' 00"
Sunlit
Object was in daylight at epoch
Visualization orbit readout
Latitude
Unknown
Longitude
Unknown
Altitude
Unknown
Speed
Unknown
Apparent Right ascension
Unknown
Apparent Declination
Unknown
Sunlit
N/A
Visualization observer readout
Local Sidereal Time
21:42:45
Azimuth
Unknown
Elevation
Unknown
Doppler factor
Unknown
Orbital elements
Apogee altitude
485.85 km
Perigee altitude
484.171 km
Semi-major axis
6,863.147 km
Eccentricity
0.00012
Inclination
43.0016°
RAAN
186.8286°
Arg. of periapsis
285.9876°
True anomaly
74.09758°
Mean anomaly
74.0841°
Eccentric anomaly
74.09084°
Mean motion
3.81732 °/min
Orbital period
94.31 mins
BSTAR
0.000012454
Loading maneuver chart data...
Computing Atmospheric mass density...
Loading historical data...
Loading historical data...
Loading historical data...
Loading historical data...
Loading historical data...
Loading historical data...
Loading historical data...

Documentation

Showing up to 5 results
|